Вернуться в каталог

STARLINK-31702

АктивенСвязьVLEO
NORAD 59585·PAYLOAD·🇺🇸 United States

Запущен Apr 23, 2024 с Cape Canaveral Space Force Station

Loading…

Ближайшие Пролёты (ближайшие 24 часа)

TLE

СвежийSource: CelesTrak SupGP

Эпоха: Sep 14, 2026, 22:10 UTC

1 59585C 24076X   26257.92409722  .00014549  00000+0  52700-3 0  2574
2 59585  43.0034  20.6356 0001702 271.3735 307.5151 15.27569175    19

Отслеживайте STARLINK-31702 в реальном времени с AllMySat

Download on the App Store